Cold Lake, Alberta

9:53 PM MST on February 21, 2017 (GMT -0700)
Cold Lake

Weather History for CYOD - May, 2013

Change the Weather History Date:

Thursday, May 23, 2013

  Actual Average Record
Temperature  
Mean Temperature 60 °F -  
Max Temperature 71 °F 68 °F 82 °F (2014)
Min Temperature 49 °F 45 °F 26 °F (2002)
Degree Days  
Heating Degree Days 5    
Growing Degree Days 10 (Base 50)    
Moisture  
Dew Point 38 °F    
Average Humidity 43    
Maximum Humidity 71    
Minimum Humidity 14    
Precipitation  
Precipitation 0.00 in 0.08 in - ()
Sea Level Pressure  
Sea Level Pressure 30.22 in    
Wind  
Wind Speed 9 mph ()    
Max Wind Speed 16 mph    
Max Gust Speed 22 mph    
Visibility 15.0 miles    
Events      
Averages and records for this station are not official NWS values.
T = Trace of Precipitation, MM = Missing Value Source: Averaged Metar Reports

Daily Weather History Graph

Daily Weather History Graph

Search for Another Location

Airport or City:

Trip Planner

Search our weather history database for the weather conditions in past years. The results will help you decide how hot, cold, wet, or windy it might be!

Date:

Astronomy

May. 23, 2013 Rise Set
Actual Time 5:03 AM MDT 9:33 PM MDT
Civil Twilight 4:14 AM MDT 10:23 PM MDT
Nautical Twilight 2:56 AM MDT 11:41 PM MDT
Astronomical Twilight 1:50 AM MDT 12:45 AM MDT
Moon 7:58 PM MDT (5/23) 4:09 AM MDT (5/23)
Length of Visible Light 18h 09m
Length of Day
16h 30m
Waxing Gibbous, 97% of the Moon is Illuminated
May 23
Waxing Gibbous
May 24
Full
May 31
Last Quarter
Jun 8
New
Jun 16
First Quarter

Hourly Weather History & Observations

Time (MDT) Temp. Dew Point Humidity Pressure Visibility Wind Dir Wind Speed Gust Speed Precip Events Conditions
12:00 AM 59 °F 44 °F 46% 30.25 in 15 mi ESE 11.5 mph - -   Scattered Clouds
12:00 AM 59.0 °F 44.6 °F 59% 30.25 in 15.0 mi ESE 11.5 mph - N/A   Partly Cloudy
1:00 AM 57.2 °F 42.8 °F 59% 30.26 in 15.0 mi ESE 11.5 mph - N/A   Partly Cloudy
2:00 AM 55.4 °F 42.8 °F 63% 30.26 in 15.0 mi SE 10.4 mph - N/A   Partly Cloudy
3:00 AM 55.4 °F 41.0 °F 58% 30.27 in 15.0 mi ESE 9.2 mph - N/A   Partly Cloudy
4:00 AM 51.8 °F 41.0 °F 67% 30.27 in 15.0 mi East 8.1 mph - N/A   Partly Cloudy
5:00 AM 50.0 °F 41.0 °F 71% 30.27 in 15.0 mi ENE 8.1 mph - N/A   Partly Cloudy
6:00 AM 50 °F 39 °F 55% 30.28 in 15 mi East 6.9 mph - -   Scattered Clouds
6:00 AM 50.0 °F 39.2 °F 66% 30.28 in 15.0 mi East 5.8 mph - N/A   Partly Cloudy
7:00 AM 51.8 °F 37.4 °F 58% 30.28 in 15.0 mi East 6.9 mph - N/A   Partly Cloudy
8:00 AM 53.6 °F 37.4 °F 54% 30.28 in 15.0 mi East 9.2 mph - N/A   Partly Cloudy
9:00 AM 57.2 °F 39.2 °F 51% 30.27 in 15.0 mi East 9.2 mph - N/A   Partly Cloudy
10:00 AM 59.0 °F 39.2 °F 48% 30.27 in 15.0 mi East 8.1 mph - N/A   Partly Cloudy
11:00 AM 62.6 °F 39.2 °F 42% 30.25 in 15.0 mi ENE 12.7 mph - N/A   Partly Cloudy
12:00 PM 65 °F 38 °F 26% 30.23 in 15 mi East 13.8 mph - -   Clear
12:00 PM 66.2 °F 39.2 °F 37% 30.23 in 15.0 mi East 13.8 mph 20.7 mph N/A   Partly Cloudy
1:00 PM 68.0 °F 37.4 °F 33% 30.22 in 15.0 mi ESE 13.8 mph 21.9 mph N/A   Scattered Clouds
2:00 PM 68.0 °F 37.4 °F 33% 30.20 in 15.0 mi ESE 12.7 mph 18.4 mph N/A   Mostly Cloudy
3:00 PM 69.8 °F 37.4 °F 31% 30.17 in 15.0 mi East 15.0 mph 21.9 mph N/A   Mostly Cloudy
4:00 PM 69.8 °F 35.6 °F 28% 30.17 in 15.0 mi East 16.1 mph - N/A   Mostly Cloudy
5:00 PM 69.8 °F 32.0 °F 25% 30.15 in 15.0 mi ESE 12.7 mph 18.4 mph N/A   Mostly Cloudy
6:00 PM 70 °F 31 °F 14% 30.14 in 15 mi ENE 11.5 mph - -   Scattered Clouds
6:00 PM 69.8 °F 32.0 °F 25% 30.14 in 15.0 mi ENE 13.8 mph - N/A   Mostly Cloudy
7:00 PM 68.0 °F 33.8 °F 28% 30.13 in 15.0 mi ESE 10.4 mph - N/A   Mostly Cloudy
8:00 PM 68.0 °F 33.8 °F 28% 30.13 in 15.0 mi East 5.8 mph - N/A   Mostly Cloudy
9:00 PM 64.4 °F 33.8 °F 32% 30.14 in 15.0 mi ESE 6.9 mph - N/A   Mostly Cloudy
10:00 PM 60.8 °F 33.8 °F 36% 30.14 in 15.0 mi ESE 5.8 mph - N/A   Mostly Cloudy
11:00 PM 59.0 °F 33.8 °F 39% 30.14 in 15.0 mi East 5.8 mph - N/A   Overcast